weather.gov     
National Weather Service

Terminal Aerodrome Forecast
NWS Homepage
This page is being discontinued on March 12, 2014.
The same data is available at this site. Please update your bookmarks.
Thank you, and we apologize for the inconvenience.
Please send an email to SR-SRH.Webmaster@noaa.gov with any concerns.


Current Version
Previous Version:    01  02  03  04  05  06  07  08  09  10  11  12  13  14  15  16  17  18  19  20  21  22  23  
[Printable]
777
FTUS44 KMRX 231741
TAFTRI
TAF
KTRI 231741Z 2318/2418 10006KT P6SM -RA SCT050 BKN100 WS020/15045KT
     FM232100 13009KT P6SM -RA SCT035 OVC070
     FM240300 21009KT 6SM -RA SCT025 BKN050
     FM240800 20007KT 5SM -RA BR OVC025
     FM241100 21014KT P6SM BKN025=




777
FTUS44 KMRX 231741
TAFTRI
TAF
KTRI 231741Z 2318/2418 10006KT P6SM -RA SCT050 BKN100 WS020/15045KT
     FM232100 13009KT P6SM -RA SCT035 OVC070
     FM240300 21009KT 6SM -RA SCT025 BKN050
     FM240800 20007KT 5SM -RA BR OVC025
     FM241100 21014KT P6SM BKN025=


U.S. Dept. of Commerce
NOAA National Weather Service
1325 East West Highway
Silver Spring, MD 20910
E-mail: w-nws.webmaster@noaa.gov
Page last modified: May 16, 2007
NATIONAL WEATHER SERVICE: for Safety, for Work, for Fun - FOR LIFE